Location: Bühlhof
(48.7849°N, 8.6361°E)
Time: 07:17:24
(UTC+00:00)

BREEZE-M DEB (TANK) - Pass Details

Date: 19 January 2026
Orbit: 304 x 12631 km, 49.7° (Epoch: 17 February)

Event Time Altitude Azimuth Distance (km) Brightness Sun altitude
Rises 19:14:37 0° 270° (W) 2,413 7.3 -31.1°
Reaches altitude 10° 19:15:58 10° 271° (W) 1,785 6.3 -31.4°
Enters shadow 19:18:10 46° 278° (W) 985 4.3 -31.7°
